Location: Newark
(42.8481°N, 0.4872°E)
Time: 08:52:02
(UTC+00:00)

SR - Pass Details

Date: 07 November 2020
Orbit: 579 x 876 km, 66.7° (Epoch: 29 November)

Event Time Altitude Azimuth Distance (km) Brightness Sun altitude
Rises 22:27:58 0° 174° (S) 2,779 - -59.4°
Reaches altitude 10° 22:30:33 10° 158° (SSE) 1,889 - -59.7°
Maximum altitude 22:33:45 21° 109° (ESE) 1,331 - -60.0°
Drops below altitude 10° 22:37:02 10° 59° (ENE) 1,950 - -60.4°
Sets 22:39:45 0° 44° (NE) 2,897 - -60.6°
